Dewpoint
3 6 8 7 9 9 10 9 6 6 3 2 -0 1 9 13 13 12 14 14 14 14 14 10 8 8 8 8 8 8 8 9 9 10 9 9 9 10 14 11 -0 -7 2 13 12 11 2 -2 -4
1 8 8 8 9 10 9 5 4 2 1 0 -0 6 9 14 14 14 13 14 15 15 14 12 10 9 9 9 10 9 7 6 9 10 9 8 10 11 13 10 -5 -1 7 12 10 4 0 -1 -4
1 8 8 8 9 9 7 3 2 -0 -0 -1 4 7 10 14 15 14 13 14 14 16 15 13 13 11 11 10 10 7 3 5 5 9 9 9 10 11 10 8 11 9 6 6 2 1 1 1 -1
5 6 7 9 8 6 5 3 2 1 -0 -1 3 10 11 12 12 12 13 14 14 15 15 13 13 12 12 11 10 5 9 10 8 8 9 9 11 12 12 6 13 13 2 0 1 1 1 0 0
6 6 7 7 6 4 2 1 1 1 -0 -1 -2 8 12 11 9 9 11 12 14 15 15 14 13 14 12 11 9 5 9 12 2 9 10 9 11 13 14 7 12 11 1 2 2 1 1 0 -0
5 5 6 7 4 1 -1 -2 -2 -1 -2 -3 -3 8 10 8 9 9 12 11 13 15 15 14 14 14 12 11 10 7 9 13 2 11 10 10 11 13 14 6 12 1 2 6 3 2 1 1 1
6 6 6 4 3 1 -1 -3 -3 -3 -3 -3 -3 1 9 7 7 6 9 10 11 12 14 15 15 14 13 11 10 9 8 12 6 10 10 10 12 14 13 5 9 5 3 3 2 1 0 1 1
3 3 5 5 5 3 -2 -4 -5 -5 -5 -5 -4 -2 5 6 7 7 6 8 10 12 13 14 15 14 13 13 12 12 10 8 13 10 11 12 13 14 12 0 8 4 3 2 1 1 -0 -0 0
-0 4 5 4 3 2 -2 -3 -4 -4 -5 -5 -6 -4 -0 2 6 7 6 6 7 9 10 12 14 14 13 13 13 12 13 3 12 12 11 14 14 14 10 6 9 4 3 2 2 1 0 0 -0
0 3 3 1 -0 -0 -3 -3 -4 -4 -4 -3 -3 -5 -1 2 5 8 7 6 6 7 8 9 11 12 12 11 10 12 13 12 7 14 13 15 14 11 7 4 4 4 3 2 1 0 0 0 -0
1 2 -0 -0 -1 -1 -2 -3 -3 -4 -2 -2 -2 -2 1 1 6 6 4 4 7 8 8 7 8 9 6 10 10 9 10 12 7 12 14 14 14 12 0 0 3 2 3 1 0 -0 -0 -0 -0
2 1 0 -0 -2 -1 -2 -3 -3 -2 -3 -4 -3 -2 -1 3 6 6 7 7 7 8 8 10 9 6 8 8 7 7 8 11 9 12 14 14 14 11 -3 -3 1 2 2 0 -0 -0 -0 0 1
-1 -0 -1 -2 -3 -3 -4 -3 -3 -3 -2 -2 -4 -2 -1 1 3 5 6 8 6 6 7 8 6 7 6 4 7 7 8 9 11 8 13 13 13 9 -0 -2 -1 -0 -0 -1 -0 0 -0 0 1
-2 -1 -1 -2 -3 -3 -3 -3 -3 -2 -3 -2 -3 -3 -2 -1 2 2 3 4 7 7 8 7 7 7 7 8 6 8 9 11 10 4 12 13 12 8 4 3 -0 -2 -1 -0 1 1 2 3 4
-1 1 -0 -2 -1 -1 -2 -1 -2 -3 -2 -3 -1 -4 -3 -1 -0 -0 2 3 6 7 8 7 7 7 8 9 9 8 9 12 7 3 8 12 12 11 8 7 1 -0 1 2 1 3 4 5 7
0 1 2 -1 -1 -1 -1 1 -4 -4 -2 -2 -2 -2 -3 -2 -0 1 3 6 4 7 8 7 7 8 8 9 9 8 12 10 10 11 11 11 12 11 10 6 5 4 4 4 3 4 6 8 9
2 0 2 0 -1 0 1 1 -2 -3 -3 -1 -2 -2 -4 -3 -1 1 1 3 7 8 7 8 7 8 9 10 10 8 11 11 11 10 11 11 11 11 9 7 6 5 4 5 6 7 7 8 9
-0 1 2 2 0 0 2 4 2 -2 -1 -2 -3 -2 -3 -3 0 3 3 7 8 8 8 10 8 8 9 9 11 6 10 12 12 10 10 9 8 6 6 7 8 10 11 11 10 8 7 7 8
1 2 2 1 -0 2 4 4 3 -1 -0 3 1 2 -2 0 3 7 7 6 7 8 8 8 9 9 9 9 11 11 9 11 12 11 9 10 10 8 8 10 11 11 12 11 10 10 9 8 9
3 4 3 2 1 4 5 5 4 0 1 2 4 4 4 5 5 6 6 6 7 8 9 9 8 9 10 9 8 9 9 9 11 11 11 11 10 11 11 11 10 10 11 11 12 11 11 11 10
3 5 4 3 2 4 4 5 3 1 3 4 4 4 5 5 4 5 7 7 9 10 9 9 9 10 10 10 9 10 9 9 10 9 10 11 10 9 9 9 9 9 10 10 11 11 11 11 11
6 4 5 5 6 5 4 2 3 4 4 4 7 7 4 6 8 7 8 8 8 9 9 9 10 11 10 9 10 11 11 10 10 10 10 9 10 10 10 10 10 9 9 9 9 9 9 9 9
6 4 5 5 6 7 5 7 6 4 5 4 6 8 7 7 8 8 8 9 8 8 8 10 10 10 10 9 10 10 10 11 10 10 10 10 10 10 10 9 9 9 9 9 9 9 7 6 6
4 6 5 6 7 7 3 6 6 5 5 4 5 6 6 7 7 8 8 8 8 9 9 9 9 9 10 10 8 9 9 10 9 9 9 8 8 8 7 7 8 8 9 8 8 9 10 9 9
5 6 8 8 7 8 6 5 5 5 4 4 5 5 5 6 6 7 7 8 8 7 8 8 8 9 9 8 9 9 9 8 7 7 8 7 7 6 7 8 8 8 9 8 9 9 9 10 9
7 7 7 9 8 8 5 6 6 4 4 4 4 4 5 5 5 5 6 6 6 6 6 8 8 8 8 8 10 10 9 9 8 8 7 7 7 7 8 8 8 8 8 8 7 9 9 9 10
5 7 6 8 6 8 7 6 4 3 4 4 4 4 3 4 3 4 4 4 4 4 4 4 5 5 5 5 5 6 8 10 9 8 9 9 9 9 9 9 9 9 9 9 9 10 8 8 9
3 2 5 7 9 9 8 7 7 5 4 4 3 3 3 2 2 3 2 3 2 1 1 0 1 1 1 1 1 2 2 3 5 6 8 9 9 8 9 10 10 10 10 10 10 9 9 10 10
4 3 2 2 4 6 6 7 6 5 4 4 2 2 2 1 1 -0 -1 -2 -2 -3 -3 -4 -4 -4 -4 -4 -3 -3 -3 -2 -1 -0 1 2 2 3 3 3 3 3 3 4 5 9 10 10 10
2 3 -0 4 3 3 4 6 3 3 2 1 1 -1 -1 -0 -2 -2 -3 -3 -4 -4 -4 -5 -5 -6 -6 -7 -7 -7 -7 -6 -5 -4 -4 -3 -2 -2 -2 -2 -1 0 1 3 5 9 9 10 10
Wind_Speed
8 11 6 1 2 1 3 7 5 12 6 8 18 13 5 2 2 2 14 2 9 10 11 23 23 22 20 18 17 16 16 16 16 17 15 14 13 14 16 12 13 18 21 21 21 15 16 16 17
9 10 4 2 2 4 4 7 10 11 21 28 24 11 0 3 7 10 11 10 9 12 11 18 22 21 19 17 15 15 16 18 18 18 17 16 16 15 15 13 15 18 20 21 21 19 18 16 17
6 6 1 3 4 6 4 7 14 18 21 25 4 2 3 3 9 9 8 14 15 15 11 10 19 18 17 16 14 13 14 17 19 20 19 19 18 17 16 16 17 18 21 22 21 19 17 16 17
6 2 2 3 6 6 11 12 21 11 30 25 10 4 7 8 6 5 9 15 17 15 13 9 17 17 16 14 12 11 13 14 19 21 22 21 21 19 19 19 21 21 23 22 21 18 17 15 16
3 2 2 4 7 7 7 15 21 12 14 26 18 4 9 9 6 4 8 11 15 17 13 12 14 15 15 13 11 11 12 13 17 23 24 23 23 22 20 21 23 22 23 22 20 18 16 15 14
2 2 2 6 7 8 8 25 19 14 20 27 17 7 6 9 8 6 8 9 15 17 15 13 12 14 13 12 10 11 12 12 18 22 24 24 24 22 22 21 23 23 23 20 20 17 16 15 13
2 1 4 5 6 9 7 26 16 14 18 23 19 5 4 11 11 9 8 11 13 16 18 20 19 16 9 7 7 10 12 11 19 22 24 24 24 23 23 23 23 23 23 21 19 17 14 13 12
3 1 3 4 5 9 13 18 21 21 18 25 22 4 3 13 15 14 13 14 15 17 20 22 21 22 18 13 8 10 13 13 18 23 24 25 25 24 23 24 22 24 23 20 18 16 13 12 11
7 2 2 4 6 7 22 17 33 31 25 30 24 20 11 7 16 17 15 15 18 19 20 22 24 25 21 16 6 10 15 15 17 24 26 29 28 27 24 26 24 25 23 21 18 15 13 11 10
5 3 4 6 8 10 17 20 23 18 26 21 30 22 14 6 11 16 13 17 17 20 22 23 24 16 14 7 12 9 13 20 19 26 30 30 25 27 28 27 26 25 23 21 18 15 13 11 9
5 5 5 16 23 22 17 21 22 18 12 18 21 30 21 15 14 17 18 19 18 18 23 28 32 37 34 49 47 35 18 22 24 26 33 31 26 24 29 30 28 26 23 20 18 15 13 11 10
7 12 14 19 26 26 17 23 22 23 20 29 29 29 29 10 12 11 13 17 18 18 20 23 21 17 25 46 47 45 44 28 31 30 30 30 25 23 29 30 27 25 23 20 17 14 12 11 11
4 7 14 17 16 17 21 19 20 29 25 31 32 29 20 20 11 10 11 13 17 20 21 17 13 14 14 36 28 29 32 26 39 37 34 26 24 24 28 28 26 25 22 19 17 15 13 12 10
7 14 14 16 21 20 16 21 22 23 29 31 32 31 27 22 18 13 15 15 17 19 20 18 12 12 9 17 20 23 25 31 43 40 37 30 27 24 26 26 26 25 23 20 17 14 13 11 8
13 8 13 16 17 11 22 22 19 25 29 33 31 34 31 28 27 21 16 13 9 17 19 22 17 12 14 19 15 25 35 38 42 36 33 33 29 25 26 25 26 25 22 18 16 12 12 12 10
5 5 3 1 4 11 12 22 18 26 24 31 35 31 31 33 26 21 12 14 13 20 22 23 19 14 12 19 15 24 24 35 35 33 35 33 33 29 26 24 23 21 19 17 16 15 14 14 14
3 4 7 8 3 5 4 16 8 27 26 27 29 32 34 34 26 22 18 18 16 18 20 21 19 19 9 11 21 14 27 32 33 33 35 34 33 30 29 26 22 20 19 18 16 16 17 18 17
4 3 5 8 3 11 15 21 20 27 13 29 26 28 33 32 25 19 15 15 15 18 18 14 18 20 20 18 20 13 30 29 35 36 38 35 31 29 29 25 22 20 17 15 15 16 17 16 16
5 10 15 18 16 14 14 15 17 16 15 17 19 10 21 20 18 14 12 12 12 16 14 14 15 16 22 22 25 29 32 31 27 32 39 33 28 28 27 25 23 21 20 17 14 14 15 15 16
14 17 21 17 16 7 10 17 14 6 11 16 10 7 4 5 9 9 13 11 13 13 12 14 17 18 16 18 27 23 24 21 21 28 25 27 28 28 26 26 25 24 23 21 19 16 14 13 14
17 15 17 16 11 11 11 9 5 5 2 6 9 7 4 2 7 11 14 10 8 7 10 11 17 20 23 22 22 22 23 25 22 23 22 21 24 22 23 21 21 21 22 22 22 20 18 18 17
13 12 16 16 7 4 8 3 2 2 5 7 14 7 2 3 8 10 6 5 6 3 1 8 9 17 31 28 17 13 19 24 23 19 23 19 21 20 18 16 16 15 15 16 14 16 16 20 22
7 13 10 5 6 3 3 1 2 6 3 5 8 7 4 7 14 13 9 12 10 8 7 3 5 6 28 30 15 13 12 15 20 15 15 16 14 13 13 15 18 19 19 16 19 21 23 28 30
11 5 3 2 1 2 3 4 1 2 2 4 4 8 6 6 11 12 9 8 10 7 4 6 8 9 12 11 2 13 6 9 10 12 11 9 14 21 21 23 21 20 19 22 22 22 24 24 24
1 3 2 3 2 0 0 1 1 5 2 6 4 7 11 13 13 15 11 11 8 7 13 9 7 8 5 5 9 5 11 8 7 6 14 14 18 27 23 20 28 27 23 23 26 27 26 24 23
4 3 2 1 2 2 4 3 2 5 7 4 8 7 14 15 19 21 19 18 16 12 11 8 6 4 2 3 5 11 10 13 11 15 13 17 23 22 17 16 16 21 21 20 20 25 22 22 21
2 2 4 1 2 2 1 1 1 6 4 7 10 12 13 17 17 20 17 18 15 13 12 11 9 8 5 3 3 1 2 11 16 21 20 23 23 21 21 24 25 23 24 23 25 25 22 21 23
7 4 0 1 2 3 2 3 3 3 5 7 9 12 13 15 17 17 19 17 15 15 14 13 12 11 8 6 4 4 3 2 2 5 11 14 14 18 19 20 22 23 24 26 27 28 29 32 28
3 5 3 2 2 3 2 3 3 6 8 8 10 8 10 16 15 14 14 14 14 14 14 13 12 10 8 6 5 4 3 2 3 5 8 9 10 13 15 17 18 20 22 22 22 22 21 23 23
3 6 1 4 5 4 4 3 4 8 9 12 11 10 9 12 12 11 11 12 12 12 11 11 10 8 8 6 5 5 5 5 5 6 7 9 11 12 14 16 18 20 22 23 21 20 19 23 22
Wind_Direction
174 163 124 343 72 96 217 240 261 279 320 265 264 314 153 61 106 201 132 104 198 194 178 184 179 176 176 178 181 185 193 196 195 189 182 183 178 169 167 162 156 155 154 144 142 149 134 123 119
181 148 130 213 147 222 245 234 265 273 266 279 292 303 267 100 93 125 151 114 170 203 171 191 184 182 180 183 188 194 199 203 201 196 188 188 182 176 174 164 158 158 150 146 147 142 132 125 122
170 122 128 160 196 194 234 210 226 258 292 301 255 232 52 97 127 136 149 164 180 199 183 189 190 185 187 190 195 203 199 196 198 198 191 186 185 182 181 164 150 158 157 151 148 139 134 129 126
114 117 249 246 237 242 237 282 278 293 298 301 274 121 118 139 146 118 156 178 186 176 181 174 198 189 191 200 199 204 198 198 201 195 192 187 183 179 179 167 161 160 156 154 149 143 140 134 133
192 268 239 240 245 269 267 270 279 292 291 297 299 236 160 174 188 181 161 190 173 174 175 182 199 198 195 199 208 207 203 205 205 193 190 187 185 178 175 176 163 162 156 152 153 151 145 140 138
148 253 241 240 265 280 285 278 279 274 281 291 319 201 190 194 198 188 170 187 194 180 170 193 189 200 198 207 210 208 207 216 196 191 189 188 186 182 178 180 168 165 159 159 160 159 154 147 143
113 32 237 268 280 284 265 277 281 286 282 283 279 305 232 187 205 214 191 205 217 199 197 182 174 174 192 216 232 216 217 220 200 196 192 190 189 183 185 177 177 167 167 165 163 164 159 152 148
237 203 244 240 261 283 289 301 300 302 294 307 291 249 225 214 195 214 229 211 212 217 211 191 184 177 170 172 190 243 231 220 210 202 196 190 188 185 185 180 172 172 172 170 167 166 163 160 157
263 238 238 247 246 270 289 299 298 305 300 304 304 296 266 242 221 210 223 231 221 223 219 221 192 181 170 171 160 217 245 234 219 205 199 194 195 191 181 179 176 177 175 176 174 171 170 168 164
171 213 236 245 288 295 299 303 315 322 312 317 316 314 271 252 213 210 232 241 241 241 240 238 228 211 219 213 304 305 250 243 225 207 199 196 198 193 188 182 182 180 179 180 178 177 177 177 174
220 226 265 288 294 292 298 300 304 298 299 310 307 311 313 257 211 210 227 248 252 249 251 246 248 244 273 259 265 280 292 243 224 220 199 195 199 202 191 187 187 183 184 185 183 185 186 187 184
240 256 266 277 279 284 285 291 289 284 284 292 303 302 316 258 231 226 227 249 254 273 275 259 256 282 261 262 282 273 279 240 222 213 196 192 199 200 189 192 190 190 189 191 190 190 191 196 196
248 249 272 285 303 305 302 289 277 281 297 296 292 292 300 303 260 246 244 243 255 268 268 241 257 298 313 264 272 287 268 268 222 211 210 190 201 200 191 189 192 193 193 194 196 195 198 201 215
311 324 310 306 293 283 287 284 288 287 289 286 283 286 294 303 270 263 261 261 260 266 255 224 247 275 254 231 257 267 279 274 215 212 208 211 206 205 195 193 193 193 195 196 200 198 203 204 215
322 314 308 278 272 274 276 270 265 280 275 275 284 277 283 288 286 285 271 274 289 268 244 227 240 257 253 235 233 261 286 206 204 203 206 203 207 206 199 195 192 193 193 200 203 201 209 214 214
290 291 274 173 218 243 220 271 254 254 263 267 273 276 278 277 288 268 257 254 252 252 243 224 239 240 256 242 221 258 187 187 191 194 185 195 198 201 204 197 194 194 196 198 205 203 198 206 218
223 242 258 300 259 277 258 287 290 247 254 267 261 263 264 271 277 268 264 254 258 251 243 233 239 233 226 231 215 239 197 188 193 193 192 197 201 206 200 196 196 197 198 199 203 206 211 217 220
222 241 271 281 290 305 285 277 274 266 269 256 257 265 255 261 272 256 241 234 249 252 262 238 243 240 231 222 202 223 199 200 187 194 199 200 193 189 190 193 188 186 191 198 207 214 219 220 228
274 275 276 271 278 291 273 276 275 253 285 298 232 265 245 264 242 220 216 220 244 251 261 266 257 234 240 218 204 187 192 206 199 194 193 194 190 184 183 187 187 192 197 211 220 221 218 222 223
267 270 264 278 276 263 273 277 264 219 247 249 280 252 275 240 213 239 229 215 218 233 229 242 251 237 228 213 196 186 194 211 205 198 200 201 192 188 192 195 196 200 201 208 214 220 218 222 221
264 258 268 260 285 261 256 283 255 243 242 312 294 296 325 201 227 303 229 210 195 214 219 234 249 230 208 204 188 190 187 186 192 200 203 205 200 197 204 206 202 206 215 222 225 219 220 226 224
277 243 259 259 260 241 170 246 141 30 352 14 1 24 16 180 171 197 157 138 195 165 104 234 261 224 205 209 204 182 180 185 182 185 192 206 203 191 190 207 219 226 232 235 241 245 254 258 249
247 288 288 243 224 270 212 328 353 24 19 357 6 39 59 119 147 168 162 169 161 152 87 112 237 148 187 193 162 171 169 166 184 194 205 202 213 225 235 244 242 245 239 242 244 243 249 251 259
257 268 205 344 238 258 203 205 86 321 310 303 1 37 62 88 131 128 118 148 120 124 102 125 111 140 135 148 196 232 220 187 207 229 244 252 264 270 260 246 238 240 246 251 248 250 242 240 239
135 299 247 177 191 7 272 50 96 348 334 297 89 44 80 86 95 110 102 88 136 73 78 74 92 117 117 167 180 195 204 187 190 256 245 243 224 243 262 223 238 249 253 251 252 254 251 242 242
241 232 210 306 137 105 346 357 27 331 64 76 91 84 87 85 84 92 98 95 89 76 67 71 72 70 286 315 271 251 235 226 225 250 235 228 239 244 256 251 254 247 244 241 247 245 245 253 254
353 291 193 221 64 95 126 123 112 32 75 77 75 75 71 86 85 87 89 92 85 77 75 78 84 89 99 105 82 72 211 224 225 231 234 246 250 261 261 248 250 255 258 258 258 253 255 250 254
209 304 260 298 85 75 31 35 43 57 81 72 60 57 64 72 75 78 80 77 79 78 77 79 80 80 78 74 70 54 55 60 185 216 233 245 247 245 252 247 253 251 257 261 263 265 262 255 258
326 301 229 244 153 135 88 27 47 92 112 99 74 69 85 85 76 72 74 80 81 81 80 77 78 81 79 71 64 55 35 333 303 273 271 276 279 272 270 272 271 268 267 267 265 265 258 258 252
276 271 118 98 329 49 91 11 119 111 110 113 112 106 108 100 93 80 77 77 77 75 73 67 67 55 47 37 25 10 345 324 305 290 294 286 278 276 275 275 279 280 276 271 264 265 259 259 250
Height
1510 1511 1513 1514 1524 1520 1522 1512 1502 1499 1498 1492 1493 1495 1492 1490 1489 1502 1497 1496 1497 1500 1503 1504 1507 1509 1513 1516 1519 1520 1522 1524 1525 1527 1529 1531 1533 1534 1536 1537 1538 1540 1542 1543 1546 1547 1548 1549 1550
1509 1511 1513 1514 1524 1524 1519 1503 1503 1496 1492 1491 1492 1493 1491 1494 1491 1492 1496 1497 1498 1499 1502 1505 1506 1510 1512 1515 1518 1520 1521 1523 1525 1527 1528 1531 1533 1535 1536 1537 1538 1539 1541 1543 1545 1547 1549 1550 1551
1510 1511 1513 1515 1518 1519 1514 1498 1497 1492 1492 1493 1492 1491 1490 1495 1494 1492 1494 1496 1498 1499 1501 1505 1507 1510 1512 1515 1517 1520 1521 1522 1524 1526 1528 1530 1532 1534 1536 1537 1539 1539 1541 1543 1545 1547 1550 1551 1552
1510 1513 1514 1512 1513 1505 1501 1497 1493 1494 1488 1490 1492 1490 1490 1491 1493 1492 1494 1495 1498 1498 1502 1505 1506 1510 1512 1515 1517 1519 1521 1522 1523 1525 1527 1529 1531 1534 1536 1537 1539 1540 1541 1543 1545 1547 1550 1552 1553
1510 1512 1516 1514 1509 1503 1499 1498 1497 1497 1496 1489 1492 1490 1486 1488 1490 1491 1492 1495 1498 1499 1503 1505 1507 1509 1513 1515 1517 1519 1521 1522 1523 1524 1526 1528 1530 1532 1535 1537 1538 1540 1541 1544 1546 1548 1550 1552 1554
1509 1511 1516 1514 1509 1501 1497 1493 1493 1494 1492 1489 1491 1488 1485 1483 1487 1490 1492 1494 1497 1499 1502 1506 1507 1508 1513 1515 1516 1519 1521 1522 1523 1525 1526 1528 1529 1531 1533 1536 1538 1539 1542 1544 1546 1549 1550 1552 1554
1510 1513 1513 1508 1507 1502 1497 1493 1493 1492 1489 1486 1489 1490 1487 1484 1484 1488 1492 1495 1499 1498 1503 1504 1503 1504 1512 1516 1517 1519 1521 1522 1524 1525 1526 1527 1529 1530 1531 1535 1537 1540 1542 1544 1546 1549 1551 1553 1555
1510 1511 1508 1508 1507 1502 1495 1494 1492 1490 1487 1483 1486 1486 1486 1484 1484 1486 1489 1490 1493 1499 1503 1502 1502 1501 1504 1510 1514 1521 1522 1522 1523 1524 1526 1527 1528 1530 1530 1532 1537 1539 1542 1544 1546 1549 1551 1553 1555
1508 1512 1511 1508 1506 1500 1497 1494 1488 1490 1486 1482 1481 1483 1482 1483 1484 1485 1488 1488 1492 1496 1501 1501 1501 1501 1503 1506 1510 1515 1521 1521 1522 1523 1524 1525 1526 1528 1530 1531 1535 1538 1541 1544 1546 1548 1551 1553 1554
1506 1512 1507 1504 1502 1500 1498 1496 1492 1490 1485 1482 1479 1483 1478 1478 1481 1483 1487 1489 1490 1493 1497 1499 1500 1502 1500 1503 1507 1515 1517 1521 1521 1520 1522 1522 1522 1525 1528 1531 1533 1538 1541 1543 1545 1548 1550 1552 1554
1502 1503 1503 1502 1500 1500 1497 1493 1492 1488 1484 1486 1483 1480 1483 1474 1476 1479 1482 1484 1488 1490 1492 1494 1495 1495 1499 1494 1505 1513 1519 1517 1518 1519 1517 1519 1520 1523 1526 1528 1531 1535 1540 1542 1544 1546 1549 1551 1552
1501 1499 1500 1500 1498 1496 1493 1492 1486 1486 1484 1483 1483 1479 1477 1474 1476 1477 1479 1480 1484 1487 1488 1489 1490 1491 1490 1492 1496 1508 1514 1514 1514 1516 1513 1515 1518 1520 1523 1525 1530 1534 1538 1541 1543 1545 1547 1549 1551
1497 1497 1496 1497 1496 1493 1490 1486 1484 1476 1480 1478 1478 1476 1478 1475 1472 1474 1476 1478 1480 1481 1483 1486 1486 1483 1476 1490 1492 1499 1503 1506 1508 1510 1513 1511 1515 1518 1520 1523 1527 1532 1535 1539 1541 1543 1545 1547 1548
1496 1494 1493 1491 1491 1489 1488 1482 1481 1477 1476 1474 1472 1472 1472 1475 1474 1470 1471 1473 1476 1475 1478 1482 1483 1481 1477 1479 1483 1491 1490 1492 1499 1504 1508 1511 1513 1515 1518 1521 1524 1528 1532 1536 1539 1541 1543 1544 1546
1495 1495 1491 1487 1486 1486 1485 1474 1474 1476 1474 1469 1467 1466 1467 1468 1470 1468 1468 1468 1469 1474 1476 1476 1477 1477 1476 1478 1474 1478 1482 1484 1494 1498 1503 1507 1510 1513 1516 1519 1521 1526 1529 1532 1535 1538 1540 1542 1544
1497 1495 1496 1481 1482 1481 1483 1470 1466 1468 1468 1464 1461 1462 1464 1464 1465 1464 1464 1466 1465 1471 1472 1474 1474 1476 1474 1474 1471 1478 1475 1482 1490 1495 1499 1502 1507 1510 1513 1517 1520 1523 1527 1530 1532 1535 1538 1540 1541
1495 1508 1491 1481 1477 1475 1478 1465 1462 1460 1464 1461 1459 1459 1461 1461 1460 1460 1460 1461 1462 1466 1468 1471 1472 1474 1473 1472 1473 1472 1480 1480 1486 1492 1496 1500 1503 1507 1510 1514 1518 1521 1524 1527 1529 1532 1534 1537 1538
1506 1503 1486 1483 1472 1473 1472 1468 1462 1457 1460 1457 1457 1456 1456 1457 1457 1457 1457 1459 1460 1463 1465 1466 1470 1471 1472 1472 1470 1468 1475 1479 1481 1489 1494 1498 1500 1502 1506 1511 1515 1518 1521 1523 1526 1528 1531 1532 1536
1491 1490 1485 1473 1469 1474 1470 1462 1455 1453 1456 1455 1451 1450 1452 1454 1454 1455 1455 1455 1457 1460 1460 1462 1466 1466 1466 1465 1467 1463 1465 1475 1480 1485 1491 1493 1496 1498 1503 1508 1512 1514 1516 1519 1523 1525 1526 1528 1532
1486 1481 1475 1469 1466 1470 1465 1458 1453 1453 1454 1453 1451 1449 1449 1450 1452 1454 1454 1453 1454 1456 1456 1459 1461 1462 1463 1463 1464 1463 1465 1469 1474 1483 1486 1489 1492 1496 1500 1503 1506 1510 1512 1515 1518 1520 1521 1524 1528
1478 1474 1470 1470 1466 1466 1465 1458 1452 1450 1449 1449 1448 1446 1446 1448 1449 1452 1454 1451 1450 1452 1452 1454 1455 1456 1458 1459 1461 1464 1466 1474 1477 1480 1483 1486 1489 1493 1497 1500 1503 1506 1508 1510 1513 1514 1517 1520 1523
1470 1465 1463 1463 1463 1464 1457 1479 1449 1452 1451 1453 1449 1447 1447 1448 1450 1454 1453 1452 1452 1450 1447 1449 1451 1445 1454 1457 1460 1460 1465 1468 1474 1478 1482 1485 1486 1488 1491 1497 1501 1502 1504 1506 1507 1510 1511 1515 1518
1467 1462 1457 1460 1459 1456 1457 1453 1455 1450 1454 1457 1454 1450 1450 1451 1449 1453 1452 1453 1451 1448 1446 1449 1451 1446 1451 1456 1455 1461 1466 1466 1469 1475 1480 1482 1483 1486 1490 1493 1495 1498 1498 1499 1504 1505 1504 1505 1507
1461 1458 1458 1457 1455 1453 1453 1456 1457 1458 1460 1458 1455 1452 1452 1451 1450 1449 1450 1450 1448 1449 1448 1453 1453 1451 1452 1453 1458 1465 1464 1466 1470 1472 1477 1478 1480 1482 1486 1489 1491 1491 1493 1496 1497 1499 1500 1501 1500
1458 1460 1448 1450 1454 1444 1450 1451 1460 1460 1460 1459 1457 1456 1454 1452 1451 1449 1451 1450 1450 1453 1454 1453 1453 1453 1455 1459 1464 1461 1464 1466 1467 1470 1473 1476 1479 1480 1481 1481 1484 1486 1489 1491 1493 1494 1495 1495 1495
1454 1454 1449 1440 1445 1449 1446 1457 1457 1463 1461 1460 1458 1457 1452 1452 1451 1453 1454 1454 1454 1457 1455 1455 1454 1456 1462 1462 1462 1464 1464 1466 1468 1470 1472 1474 1476 1476 1478 1478 1479 1483 1486 1486 1489 1490 1489 1489 1489
1450 1450 1449 1445 1440 1447 1455 1461 1465 1466 1463 1462 1461 1461 1460 1457 1458 1456 1459 1457 1458 1458 1459 1460 1460 1461 1464 1465 1466 1467 1467 1466 1468 1469 1470 1472 1471 1471 1472 1474 1476 1478 1479 1481 1483 1484 1483 1484 1485
1447 1442 1447 1448 1442 1443 1450 1452 1455 1465 1465 1464 1463 1462 1463 1461 1459 1460 1461 1461 1462 1463 1463 1463 1463 1463 1467 1468 1469 1467 1466 1467 1468 1468 1470 1470 1468 1466 1468 1469 1471 1473 1474 1476 1476 1475 1474 1478 1479
1446 1444 1438 1436 1440 1443 1453 1460 1463 1462 1466 1467 1468 1469 1468 1465 1465 1464 1466 1467 1467 1466 1467 1468 1469 1471 1471 1471 1470 1469 1466 1468 1466 1466 1468 1464 1462 1463 1464 1465 1466 1467 1467 1469 1468 1469 1470 1471 1471
1446 1443 1438 1451 1447 1454 1462 1471 1466 1467 1468 1470 1473 1473 1472 1470 1470 1469 1468 1468 1469 1470 1471 1472 1473 1473 1472 1472 1471 1469 1470 1469 1467 1467 1460 1458 1459 1460 1459 1460 1461 1460 1461 1463 1463 1464 1463 1464 1464